Regional Weather Roundup
Issued by NWS State College, PA

Home | Current Version | Previous Version | Graphics & Text | Print | Product List | Glossary Off
Versions: 1 2 3 4 5 6 7 8 9 10 11 12 13 14 15 16 17 18 19 20 21 22 23 24 25 26 27 28 29 30 31 32 33 34 35 36 37 38 39 40 41 42 43 44 45 46 47 48 49 50

000
ASUS41 KCTP 171810
RWRCTP

REGIONAL WEATHER ROUNDUP
NATIONAL WEATHER SERVICE STATE COLLEGE PA
200 PM EDT THU APR 17 2014

Note: "fair" indicates few or no clouds below 12,000 feet with no
significant weather and/or obstructions to visibility.

* = STATION THAT DOES NOT REPORT PRECIPITATION /E.G. RAIN...SNOW...ETC/
    THUNDER OR FOG.

PAZ002>004-007>009-013>016-020>023-029>032-171900-
WESTERN PENNSYLVANIA

CITY           SKY/WX    TMP DP  RH WIND       PRES   REMARKS
ERIE           SUNNY     59  24  26 S9G20     30.38F
MEADVILLE      NOT AVBL
FRANKLIN*      SUNNY     54  27  35 SE14G20   30.43F
NEW CASTLE     FAIR      58  24  27 VRB7      30.40F
BEAVER COUNTY  SUNNY     59  27  29 S10G17    30.40F
BUTLER*        SUNNY     57  25  28 SE8       30.44F
PITTSBURGH INT PTSUNNY   57  24  28 SE6       30.41F
PITTSBURGH     MOSUNNY   61  24  24 SE8       30.41F
INDIANA*       MOSUNNY   54  23  30 S10G20    30.46F
LATROBE        PTSUNNY   55  27  33 SE9       30.45F
WASHINGTON CO* SUNNY     59  27  29 E3        30.43F
$$

PAZ004>006-010>012-017>019-024>028-033>037-041-042-045-046-049>053-171900-
CENTRAL PENNSYLVANIA

CITY           SKY/WX    TMP DP  RH WIND       PRES   REMARKS
BRADFORD       SUNNY     48  19  31 SE8G18    30.44F
DUBOIS         MOSUNNY   52  22  30 SE12G17   30.45F
CLEARFIELD     MOSUNNY   51  21  30 SE9G20    30.49F
JOHNSTOWN      MOSUNNY   47  23  38 SE14G21   30.46F
ALTOONA        MOSUNNY   49  29  46 SE9       30.52F
STATE COLLEGE  SUNNY     50  21  32 SE14      30.53F
WILLIAMSPORT   PTSUNNY   51  21  30 S8G23     30.57F
SELINSGROVE    MOSUNNY   53  25  33 S8        30.59F
FT INDIANTOWN  MOSUNNY   50  29  43 SE10G17   30.61F
CAPITAL CITY   SUNNY     52  31  44 E14       30.61F
HARRISBURG     MOSUNNY   53  29  39 SE10      30.61F
YORK           SUNNY     53  29  39 SE10      30.61F
$$

PAZ038>040-043-044-047-048-054-055-060>062-067>071-171900-
EASTERN PENNSYLVANIA

CITY           SKY/WX    TMP DP  RH WIND       PRES   REMARKS
SCRANTON       SUNNY     51  18  27 S9        30.58F
MOUNT POCONO   SUNNY     43  18  36 SE15G23   30.58F
ALLENTOWN      SUNNY     50  19  29 VRB5      30.65S
QUAKERTOWN*    SUNNY     48  25  40 SE9       30.65F
READING        MOSUNNY   52  28  39 SE8       30.62F
LANCASTER      MOSUNNY   49  30  48 SE8       30.62F
COATESVILLE    NOT AVBL
POTTSTOWN      SUNNY     50  26  39 E6        30.66F
BLUE BELL      MOSUNNY   52  28  40 E7G16     30.65S
DOYLESTOWN     SUNNY     47  29  49 VRB5      30.65F
WILLOW GROVE   NOT AVBL
NORTH PHILA    MOSUNNY   50  27  40 SE12      30.69S
PHILADELPHIA   MOSUNNY   53  28  38 E13       30.66F
$$



USA.gov is the U.S. government's official web portal to all federal, state and local government web resources and services.